Location: ??????
(55.7522°N, 37.6156°E)
Time: 17:29:06
(UTC+00:00)

CZ-2C R/B - Pass Details

Date: 14 June 2025
Orbit: 783 x 866 km, 98.4° (Epoch: 12 July)

Event Time Altitude Azimuth Distance (km) Brightness Sun altitude
Exits shadow 22:33:05 11° 175° (S) 2,309 4.4 -9.8°
Maximum altitude 22:38:09 66° 257° (WSW) 881 2.7 -9.6°
Drops below altitude 10° 22:43:29 10° 340° (NNW) 2,428 6.0 -9.4°
Sets 22:45:54 0° 343° (NNW) 3,379 6.9 -9.3°
